User: anonymous   Login
Location: Caltech
(34.1382°N, 118.1253°W)
Time: 19:48:17
(UTC-08:00)
Language:

AO-27 - Orbit

View from above orbital plane
View from above orbital plane
View from above satellite
View from above satellite

Ground track
Ground track

The orbit data is extracted from the following two-line orbital elements,

1 22825U 93061C   15023.84126727  .00000108  00000-0  59432-4 0  8733
2 22825 098.6915 334.0588 0008551 019.5377 033.5316 14.29822966112319
Epoch (UTC): 23 January 2015 20:11:25
Eccentricity: 0.0008551
inclination: 98.6915°
perigee height: 786 km
apogee height: 798 km
right ascension of ascending node: 334.0588°
argument of perigee: 19.5377°
revolutions per day: 14.29822966
mean anomaly at epoch: 33.5316°
orbit number at epoch: 11231

The dashed part of the orbit path shows where the satellite is in the earth's shadow,  

DLR